,,,PA_Meas_PMT16A,,PR_Meas_QMR101_102,,RH_Meas_QMH101,,SR_Meas_QMS101,,TA_Meas_QMH101,,GenWind,,GenWind,
date,time,status,PA,status,PR,status,RH,status,SR,status,TA,status,DirAvg,status,SpdAvg,
2012-07-10, 07:17:04,VALID,1004.85,VALID,0,VALID,94.7888,VALID,117.047,VALID,25.2786,VALID,49,VALID,0,
2012-07-10, 07:18:04,VALID,1004.83,VALID,0,VALID,94.7736,VALID,119.003,VALID,25.337,VALID,49,VALID,0,
2012-07-10, 07:19:04,VALID,1004.84,VALID,0,VALID,94.7278,VALID,119.655,VALID,25.4169,VALID,49,VALID,0,
2012-07-10, 07:20:04,VALID,1004.85,VALID,0,VALID,94.6897,VALID,121.285,VALID,25.3955,VALID,49,VALID,0,
2012-07-10, 07:21:04,VALID,1004.85,VALID,0,VALID,94.6897,VALID,124.709,VALID,25.4149,VALID,49,VALID,0,
2012-07-10, 07:22:04,VALID,1004.88,VALID,0,VALID,94.6286,VALID,133.593,VALID,25.4344,VALID,49,VALID,0,
2012-07-10, 07:23:04,VALID,1004.86,VALID,0,VALID,94.6134,VALID,145.819,VALID,25.5532,VALID,49,VALID,0,
2012-07-10, 07:24:04,VALID,1004.87,VALID,0,VALID,94.6363,VALID,170.435,VALID,25.6506,VALID,49,VALID,0,
2012-07-10, 07:25:04,VALID,1004.86,VALID,0,VALID,94.6363,VALID,187.307,VALID,25.7071,VALID,49,VALID,0,
2012-07-10, 07:26:04,VALID,1004.88,VALID,0,VALID,94.4837,VALID,197.578,VALID,25.6681,VALID,48,VALID,0,
2012-07-10, 07:27:04,VALID,1004.85,VALID,0,VALID,94.4608,VALID,215.428,VALID,25.7265,VALID,47,VALID,0,
2012-07-10, 07:28:04,VALID,1004.87,VALID,0,VALID,94.2701,VALID,226.024,VALID,25.7265,VALID,47,VALID,0,
2012-07-10, 07:29:05,VALID,1004.87,VALID,0,VALID,94.2014,VALID,242.571,VALID,25.8044,VALID,47,VALID,0,
2012-07-10, 07:30:05,VALID,1004.84,VALID,0,VALID,94.2243,VALID,249.254,VALID,25.9797,VALID,47,VALID,0,
2012-07-10, 07:31:05,VALID,1004.88,VALID,0,VALID,93.8352,VALID,247.217,VALID,25.9213,VALID,72,VALID,0.590625,
2012-07-10, 07:32:05,VALID,1004.85,VALID,0,VALID,93.3394,VALID,261.073,VALID,25.9992,VALID,72,VALID,0.194922,
2012-07-10, 07:33:05,VALID,1004.88,VALID,0,VALID,92.7596,VALID,276.315,VALID,26.0576,VALID,72,VALID,0.445703,
2012-07-10, 07:34:05,VALID,1004.89,VALID,0,VALID,92.9045,VALID,282.021,VALID,26.2739,VALID,72,VALID,0.142578,
2012-07-10, 07:35:05,VALID,1004.9,VALID,0,VALID,91.0888,VALID,287.563,VALID,26.2524,VALID,72,VALID,0.367969,
2012-07-10, 07:36:05,VALID,1004.95,VALID,0,VALID,90.509,VALID,297.671,VALID,26.4492,VALID,71,VALID,0.510547,
2012-07-10, 07:37:05,VALID,1004.91,VALID,0,VALID,90.036,VALID,299.545,VALID,26.5835,VALID,68,VALID,0.264062,
2012-07-10, 07:38:05,VALID,1004.98,VALID,0,VALID,87.7016,VALID,311.283,VALID,26.7394,VALID,69,VALID,0.644922,
2012-07-10, 07:39:05,VALID,1004.98,VALID,0,VALID,86.275,VALID,329.622,VALID,26.8757,VALID,76,VALID,0.360938,
2012-07-10, 07:40:05,VALID,1004.98,VALID,0,VALID,86.9616,VALID,335.654,VALID,27.168,VALID,76,VALID,0.308203,
2012-07-10, 07:41:05,VALID,1004.98,VALID,0,VALID,83.9787,VALID,336.224,VALID,27.2849,VALID,112,VALID,0.703516,
2012-07-10, 07:42:05,VALID,1004.97,VALID,0,VALID,82.636,VALID,339.648,VALID,27.3649,VALID,113,VALID,0.431641,
2012-07-10, 07:43:05,VALID,1004.95,VALID,0,VALID,83.1777,VALID,343.886,VALID,27.4408,VALID,113,VALID,0.274219,
2012-07-10, 07:44:05,VALID,1004.93,VALID,0,VALID,82.575,VALID,338.996,VALID,27.6356,VALID,113,VALID,0.00195313,
2012-07-10, 07:45:05,VALID,1004.94,VALID,0,VALID,82.1478,VALID,336.795,VALID,27.7915,VALID,129,VALID,0.739453,
2012-07-10, 07:46:05,VALID,1004.93,VALID,0,VALID,82.9336,VALID,337.447,VALID,27.772,VALID,146,VALID,0.83125,
2012-07-10, 07:47:05,VALID,1004.94,VALID,0,VALID,81.8426,VALID,341.441,VALID,27.7741,VALID,116,VALID,0.627344,
2012-07-10, 07:48:05,VALID,1004.94,VALID,0,VALID,79.9354,VALID,342.663,VALID,27.8716,VALID,128,VALID,0.715234,
2012-07-10, 07:49:05,VALID,1004.93,VALID,0,VALID,80.3626,VALID,339.159,VALID,27.8911,VALID,152,VALID,0.828125,
2012-07-10, 07:50:05,VALID,1004.96,VALID,0,VALID,83.0404,VALID,339.892,VALID,27.8911,VALID,112,VALID,0.693359,
2012-07-10, 07:51:05,VALID,1004.98,VALID,0,VALID,80.6983,VALID,343.479,VALID,27.9516,VALID,114,VALID,0.711719,
2012-07-10, 07:52:05,VALID,1004.98,VALID,0,VALID,80.416,VALID,350.733,VALID,27.969,VALID,142,VALID,1.1707,
2012-07-10, 07:53:05,VALID,1005,VALID,0,VALID,79.8896,VALID,360.269,VALID,27.9321,VALID,110,VALID,1.19687,
2012-07-10, 07:54:05,VALID,1005,VALID,0,VALID,81.7892,VALID,367.524,VALID,28.008,VALID,99,VALID,0.839453,
2012-07-10, 07:55:05,VALID,1004.99,VALID,0,VALID,79.9202,VALID,375.43,VALID,28.0859,VALID,96,VALID,0.819531,
2012-07-10, 07:56:05,VALID,1004.99,VALID,0,VALID,79.2793,VALID,386.271,VALID,28.1639,VALID,100,VALID,0.412891,
2012-07-10, 07:57:05,VALID,1005.06,VALID,0,VALID,80.6754,VALID,387.249,VALID,28.3588,VALID,99,VALID,0.403516,
2012-07-10, 07:58:05,VALID,1005.06,VALID,0,VALID,77.5247,VALID,388.961,VALID,28.5949,VALID,90,VALID,0.05625,
2012-07-10, 07:59:05,VALID,1005.11,VALID,0,VALID,76.1591,VALID,391.895,VALID,28.7898,VALID,79,VALID,0.671875,
2012-07-10, 08:00:05,VALID,1005.08,VALID,0,VALID,75.7319,VALID,394.34,VALID,28.8483,VALID,113,VALID,0.815234,
2012-07-10, 08:01:05,VALID,1005.1,VALID,0,VALID,76.4338,VALID,403.551,VALID,28.7119,VALID,140,VALID,1.62617,
2012-07-10, 08:02:05,VALID,1005.1,VALID,0,VALID,78.9818,VALID,408.767,VALID,28.4779,VALID,125,VALID,1.51289,
2012-07-10, 08:03:05,VALID,1005.1,VALID,0,VALID,78.5546,VALID,407.708,VALID,28.4173,VALID,131,VALID,0.766797,
2012-07-10, 08:04:05,VALID,1005.1,VALID,0,VALID,77.5476,VALID,413.413,VALID,28.4,VALID,101,VALID,1.21719,
2012-07-10, 08:05:05,VALID,1005.08,VALID,0,VALID,76.5787,VALID,424.091,VALID,28.3588,VALID,101,VALID,1.20313,
2012-07-10, 08:06:05,VALID,1005.07,VALID,0,VALID,78.463,VALID,433.383,VALID,28.3978,VALID,116,VALID,0.482422,
2012-07-10, 08:07:05,VALID,1005.08,VALID,0,VALID,76.5253,VALID,441.941,VALID,28.4389,VALID,125,VALID,0.906641,
2012-07-10, 08:08:05,VALID,1005.04,VALID,0,VALID,76.4338,VALID,443.327,VALID,28.4173,VALID,122,VALID,1.00312,
2012-07-10, 08:09:05,VALID,1005.04,VALID,0,VALID,77.4713,VALID,446.424,VALID,28.4779,VALID,120,VALID,0.490625,
2012-07-10, 08:10:05,VALID,1005.04,VALID,0,VALID,75.9379,VALID,449.359,VALID,28.6317,VALID,57,VALID,0.165234,
2012-07-10, 08:11:05,VALID,1005.07,VALID,0,VALID,74.435,VALID,328.97,VALID,28.9068,VALID,56,VALID,0.572266,
2012-07-10, 08:12:05,VALID,1005.11,VALID,0,VALID,75.6709,VALID,214.205,VALID,29.0043,VALID,53,VALID,0.813672,
2012-07-10, 08:13:05,VALID,1005.15,VALID,0,VALID,76.3956,VALID,467.454,VALID,29.0628,VALID,27,VALID,0.762109,
2012-07-10, 08:14:05,VALID,1005.18,VALID,0,VALID,74.2672,VALID,446.75,VALID,29.0433,VALID,69,VALID,0.81875,
2012-07-10, 08:15:05,VALID,1005.19,VALID,0,VALID,73.4432,VALID,492.232,VALID,29.0433,VALID,2,VALID,0.626562,
2012-07-10, 08:16:05,VALID,1005.16,VALID,0,VALID,74.641,VALID,489.38,VALID,29.0238,VALID,348,VALID,0.636328,
2012-07-10, 08:17:05,VALID,1005.15,VALID,0,VALID,75.4344,VALID,463.623,VALID,29.1191,VALID,352,VALID,0.216797,
2012-07-10, 08:18:05,VALID,1005.09,VALID,0,VALID,75.3504,VALID,499.813,VALID,29.2968,VALID,89,VALID,0.744141,
2012-07-10, 08:19:05,VALID,1005.12,VALID,0,VALID,73.8247,VALID,509.594,VALID,29.1191,VALID,104,VALID,0.977734,
2012-07-10, 08:20:05,VALID,1005.13,VALID,0,VALID,74.3892,VALID,514.973,VALID,29.0823,VALID,107,VALID,0.953906,
2012-07-10, 08:21:05,VALID,1005.12,VALID,0,VALID,74.7859,VALID,445.12,VALID,28.9826,VALID,110,VALID,2.02852,
2012-07-10, 08:22:05,VALID,1005.09,VALID,0,VALID,76.0599,VALID,286.096,VALID,28.8483,VALID,104,VALID,1.07148,
2012-07-10, 08:23:05,VALID,1005.11,VALID,0,VALID,76.4872,VALID,536.492,VALID,28.7509,VALID,45,VALID,1.00781,
2012-07-10, 08:24:05,VALID,1005.09,VALID,0,VALID,75.7929,VALID,555.728,VALID,28.7487,VALID,80,VALID,1.27969,
2012-07-10, 08:25:05,VALID,1005.11,VALID,0,VALID,73.8247,VALID,397.927,VALID,28.7292,VALID,101,VALID,0.964453,
2012-07-10, 08:26:05,VALID,1005.13,VALID,0,VALID,76.243,VALID,559.966,VALID,28.8461,VALID,358,VALID,1.10195,
2012-07-10, 08:27:05,VALID,1005.12,VALID,0,VALID,77.4637,VALID,340.707,VALID,29.0216,VALID,53,VALID,1.07227,
2012-07-10, 08:28:05,VALID,1005.11,VALID,0,VALID,74.3282,VALID,540.241,VALID,29.1581,VALID,22,VALID,1.21484,
2012-07-10, 08:29:05,VALID,1005.1,VALID,0,VALID,73.6492,VALID,522.391,VALID,29.1213,VALID,341,VALID,1.51406,
2012-07-10, 08:30:05,VALID,1005.06,VALID,0,VALID,73.489,VALID,511.957,VALID,29.0433,VALID,9,VALID,2.13242,
2012-07-10, 08:31:05,VALID,1005.06,VALID,0,VALID,75.6327,VALID,513.18,VALID,28.9458,VALID,350,VALID,1.31523,
2012-07-10, 08:32:05,VALID,1005.1,VALID,0,VALID,74.5189,VALID,515.381,VALID,28.9263,VALID,345,VALID,1.90313,
2012-07-10, 08:33:05,VALID,1005.14,VALID,0,VALID,76.7999,VALID,519.375,VALID,28.948,VALID,284,VALID,0.397656,
2012-07-10, 08:34:05,VALID,1005.1,VALID,0,VALID,75.4573,VALID,529.4,VALID,28.9458,VALID,3,VALID,1.66055,
2012-07-10, 08:35:05,VALID,1005.14,VALID,0,VALID,75.5488,VALID,547.658,VALID,29.0043,VALID,340,VALID,0.599609,
2012-07-10, 08:36:05,VALID,1005.14,VALID,0,VALID,74.4274,VALID,543.175,VALID,29.1213,VALID,82,VALID,1.27305,
2012-07-10, 08:37:05,VALID,1005.13,VALID,0,VALID,75.0529,VALID,562.411,VALID,29.0628,VALID,96,VALID,2.49414,
2012-07-10, 08:38:05,VALID,1005.21,VALID,0,VALID,77.99,VALID,568.688,VALID,28.9848,VALID,68,VALID,1.51133,
2012-07-10, 08:39:05,VALID,1005.18,VALID,0,VALID,74.8164,VALID,572.356,VALID,29.1408,VALID,342,VALID,1.07031,
2012-07-10, 08:40:05,VALID,1005.18,VALID,0,VALID,72.0395,VALID,590.369,VALID,29.2795,VALID,8,VALID,0.370313,
2012-07-10, 08:41:05,VALID,1005.2,VALID,0,VALID,73.1457,VALID,287.482,VALID,29.5503,VALID,5,VALID,0.101563,
2012-07-10, 08:42:05,VALID,1005.22,VALID,0,VALID,71.0706,VALID,287.074,VALID,29.6868,VALID,336,VALID,0.904297,
2012-07-10, 08:43:05,VALID,1005.23,VALID,0,VALID,71.2995,VALID,304.599,VALID,29.6868,VALID,297,VALID,0.522656,
2012-07-10, 08:44:05,VALID,1005.26,VALID,0,VALID,72.9931,VALID,311.935,VALID,29.665,VALID,336,VALID,0.366797,
2012-07-10, 08:45:05,VALID,1005.32,VALID,0,VALID,74.7096,VALID,344.783,VALID,29.7235,VALID,341,VALID,0.476172,
2012-07-10, 08:46:05,VALID,1005.3,VALID,0,VALID,72.0777,VALID,463.623,VALID,29.6868,VALID,19,VALID,0.676562,
2012-07-10, 08:47:05,VALID,1005.33,VALID,0,VALID,71.6886,VALID,449.522,VALID,29.6695,VALID,10,VALID,1.46211,
2012-07-10, 08:48:05,VALID,1005.3,VALID,0,VALID,74.702,VALID,417.163,VALID,29.494,VALID,41,VALID,0.698828,
2012-07-10, 08:49:05,VALID,1005.31,VALID,0,VALID,73.7636,VALID,603.981,VALID,29.4528,VALID,76,VALID,0.701172,
2012-07-10, 08:50:05,VALID,1005.31,VALID,0,VALID,76.3422,VALID,395.4,VALID,29.5698,VALID,34,VALID,0.685938,
2012-07-10, 08:51:05,VALID,1005.34,VALID,0,VALID,73.077,VALID,392.791,VALID,29.728,VALID,339,VALID,0.770312,
2012-07-10, 08:52:05,VALID,1005.35,VALID,0,VALID,72.8558,VALID,527.607,VALID,29.767,VALID,55,VALID,0.587891,
2012-07-10, 08:53:05,VALID,1005.36,VALID,0,VALID,73.4737,VALID,742.872,VALID,29.7865,VALID,33,VALID,0.371875,
2012-07-10, 08:54:05,VALID,1005.35,VALID,0,VALID,72.276,VALID,514.484,VALID,29.9036,VALID,59,VALID,0.470703,
2012-07-10, 08:55:05,VALID,1005.34,VALID,0,VALID,71.3148,VALID,796.016,VALID,29.9598,VALID,26,VALID,0.259375,
2012-07-10, 08:56:05,VALID,1005.36,VALID,0,VALID,69.5601,VALID,627.456,VALID,30.0791,VALID,18,VALID,1.53633,
2012-07-10, 08:57:05,VALID,1005.35,VALID,0,VALID,72.3065,VALID,700.814,VALID,30.0011,VALID,24,VALID,0.735937,
2012-07-10, 08:58:05,VALID,1005.39,VALID,0,VALID,71.9175,VALID,498.672,VALID,30.0401,VALID,35,VALID,1.20508,
2012-07-10, 08:59:05,VALID,1005.38,VALID,0,VALID,69.6059,VALID,311.527,VALID,29.7843,VALID,19,VALID,1.45469,
2012-07-10, 09:00:05,VALID,1005.42,VALID,0,VALID,70.3535,VALID,307.044,VALID,29.5915,VALID,20,VALID,0.778906,
2012-07-10, 09:01:05,VALID,1005.36,VALID,0,VALID,71.002,VALID,322.042,VALID,29.5135,VALID,26,VALID,0.146094,
2012-07-10, 09:02:05,VALID,1005.37,VALID,0,VALID,70.6205,VALID,360.595,VALID,29.4918,VALID,26,VALID,0,
2012-07-10, 09:03:05,VALID,1005.36,VALID,0,VALID,71.6047,VALID,399.638,VALID,29.4723,VALID,26,VALID,0,
2012-07-10, 09:04:05,VALID,1005.37,VALID,0,VALID,72.7414,VALID,428.818,VALID,29.5503,VALID,25,VALID,0.346094,
2012-07-10, 09:05:05,VALID,1005.35,VALID,0,VALID,71.7496,VALID,464.438,VALID,29.6673,VALID,14,VALID,1.05039,
2012-07-10, 09:06:05,VALID,1005.35,VALID,0,VALID,73.5653,VALID,479.598,VALID,29.7063,VALID,351,VALID,0.7875,
2012-07-10, 09:07:05,VALID,1005.33,VALID,0,VALID,71.7115,VALID,288.216,VALID,29.7648,VALID,345,VALID,1.69648,
2012-07-10, 09:08:05,VALID,1005.36,VALID,0,VALID,70.5214,VALID,249.01,VALID,29.587,VALID,356,VALID,1.73242,
2012-07-10, 09:09:05,VALID,1005.32,VALID,0,VALID,70.7273,VALID,251.781,VALID,29.4138,VALID,18,VALID,0.614453,
2012-07-10, 09:10:05,VALID,1005.27,VALID,0,VALID,71.9632,VALID,249.336,VALID,29.3553,VALID,212,VALID,0.6875,
2012-07-10, 09:11:05,VALID,1005.29,VALID,0,VALID,72.2684,VALID,262.866,VALID,29.2968,VALID,54,VALID,0.742969,
2012-07-10, 09:12:05,VALID,1005.28,VALID,0,VALID,75.5641,VALID,367.524,VALID,29.2773,VALID,35,VALID,0.832422,
2012-07-10, 09:13:05,VALID,1005.27,VALID,0,VALID,74.3358,VALID,530.378,VALID,29.338,VALID,28,VALID,0.35625,
2012-07-10, 09:14:05,VALID,1005.28,VALID,0,VALID,74.0688,VALID,667.803,VALID,29.3553,VALID,119,VALID,1.59805,
2012-07-10, 09:15:05,VALID,1005.26,VALID,0,VALID,73.1915,VALID,340.055,VALID,29.3163,VALID,110,VALID,1.59805,
2012-07-10, 09:16:05,VALID,1005.26,VALID,0,VALID,72.0243,VALID,317.722,VALID,29.1798,VALID,84,VALID,1.66836,
2012-07-10, 09:17:05,VALID,1005.29,VALID,0,VALID,72.1387,VALID,300.034,VALID,29.1018,VALID,91,VALID,1.9418,
2012-07-10, 09:18:05,VALID,1005.29,VALID,0,VALID,72.009,VALID,283.57,VALID,29.065,VALID,72,VALID,0.9375,
2012-07-10, 09:19:05,VALID,1005.29,VALID,0,VALID,74.0078,VALID,285.363,VALID,29.0455,VALID,71,VALID,0.607031,
2012-07-10, 09:20:05,VALID,1005.3,VALID,0,VALID,72.2455,VALID,290.09,VALID,29.0628,VALID,76,VALID,0.572656,
2012-07-10, 09:21:05,VALID,1005.28,VALID,0,VALID,72.9016,VALID,304.273,VALID,29.1213,VALID,85,VALID,1.65078,
2012-07-10, 09:22:05,VALID,1005.32,VALID,0,VALID,70.3307,VALID,316.907,VALID,29.0433,VALID,104,VALID,1.36602,
2012-07-10, 09:23:05,VALID,1005.34,VALID,0,VALID,71.9403,VALID,321.634,VALID,29.0628,VALID,42,VALID,0.839844,
2012-07-10, 09:24:05,VALID,1005.31,VALID,0,VALID,72.1463,VALID,322.205,VALID,29.1408,VALID,27,VALID,0.941406,
2012-07-10, 09:25:05,VALID,1005.31,VALID,0,VALID,72.8406,VALID,586.294,VALID,29.1776,VALID,27,VALID,0.358984,
2012-07-10, 09:26:05,VALID,1005.31,VALID,0,VALID,71.803,VALID,347.636,VALID,29.2383,VALID,106,VALID,1.19102,
2012-07-10, 09:27:05,VALID,1005.31,VALID,0,VALID,72.5278,VALID,296.448,VALID,29.2188,VALID,81,VALID,1.57344,
2012-07-10, 09:28:05,VALID,1005.32,VALID,0,VALID,71.475,VALID,243.141,VALID,29.1386,VALID,95,VALID,1.65977,
2012-07-10, 09:29:05,VALID,1005.31,VALID,0,VALID,73.1839,VALID,239.066,VALID,29.0606,VALID,90,VALID,1.3043,
2012-07-10, 09:30:05,VALID,1005.25,VALID,0,VALID,71.0783,VALID,240.696,VALID,29.0238,VALID,22,VALID,0.835938,
2012-07-10, 09:31:05,VALID,1005.25,VALID,0,VALID,71.9327,VALID,217.466,VALID,29.0216,VALID,345,VALID,1.31133,
2012-07-10, 09:32:05,VALID,1005.26,VALID,0,VALID,72.2302,VALID,200.43,VALID,29.0628,VALID,96,VALID,0.878906,
2012-07-10, 09:33:05,VALID,1005.27,VALID,0,VALID,71.9785,VALID,191.709,VALID,28.9631,VALID,84,VALID,1.34336,
2012-07-10, 09:34:05,VALID,1005.3,VALID,0,VALID,72.9245,VALID,184.129,VALID,28.9241,VALID,95,VALID,1.2668,
2012-07-10, 09:35:05,VALID,1005.31,VALID,0,VALID,73.016,VALID,186.329,VALID,28.8873,VALID,73,VALID,0.971875,
2012-07-10, 09:36:05,VALID,1005.34,VALID,0,VALID,73.5424,VALID,182.743,VALID,28.8483,VALID,85,VALID,1.06953,
2012-07-10, 09:37:05,VALID,1005.31,VALID,0,VALID,73.8399,VALID,185.677,VALID,28.8288,VALID,85,VALID,1.21367,
2012-07-10, 09:38:05,VALID,1005.32,VALID,0,VALID,74.5799,VALID,180.95,VALID,28.7682,VALID,105,VALID,1.50859,
2012-07-10, 09:39:05,VALID,1005.34,VALID,0,VALID,75.1597,VALID,172.473,VALID,28.7292,VALID,93,VALID,1.48555,
2012-07-10, 09:40:05,VALID,1005.31,VALID,0,VALID,76.861,VALID,170.109,VALID,28.7682,VALID,102,VALID,0.519922,
2012-07-10, 09:41:05,VALID,1005.33,VALID,0,VALID,76.7618,VALID,182.824,VALID,28.8461,VALID,83,VALID,0.561719,
2012-07-10, 09:42:05,VALID,1005.32,VALID,0,VALID,75.1368,VALID,223.008,VALID,28.8656,VALID,53,VALID,0.065625,
2012-07-10, 09:43:05,VALID,1005.31,VALID,0,VALID,73.6492,VALID,275.093,VALID,28.9631,VALID,56,VALID,0.359375,
2012-07-10, 09:44:05,VALID,1005.28,VALID,0,VALID,73.9315,VALID,282.347,VALID,29.0628,VALID,64,VALID,0.412109,
2012-07-10, 09:45:05,VALID,1005.3,VALID,0,VALID,73.2373,VALID,264.17,VALID,29.0801,VALID,92,VALID,1.15234,
2012-07-10, 09:46:05,VALID,1005.28,VALID,0,VALID,72.1005,VALID,254.145,VALID,29.0021,VALID,86,VALID,0.941016,
2012-07-10, 09:47:05,VALID,1005.28,VALID,0,VALID,73.1304,VALID,233.605,VALID,29.0043,VALID,95,VALID,1.22305,
2012-07-10, 09:48:05,VALID,1005.26,VALID,0,VALID,73.6263,VALID,209.559,VALID,28.9241,VALID,97,VALID,1.18789,
2012-07-10, 09:49:05,VALID,1005.26,VALID,0,VALID,73.817,VALID,189.427,VALID,28.8873,VALID,88,VALID,0.896094,
2012-07-10, 09:50:05,VALID,1005.23,VALID,0,VALID,74.2137,VALID,175.733,VALID,28.8288,VALID,76,VALID,0.430078,
2012-07-10, 09:51:05,VALID,1005.22,VALID,0,VALID,72.8482,VALID,172.147,VALID,28.8093,VALID,37,VALID,0.661719,
2012-07-10, 09:52:05,VALID,1005.17,VALID,0,VALID,72.6727,VALID,160.573,VALID,28.7898,VALID,19,VALID,0.629687,
2012-07-10, 09:53:05,VALID,1005.14,VALID,0,VALID,73.2449,VALID,157.638,VALID,28.7898,VALID,19,VALID,0.354297,
2012-07-10, 09:54:05,VALID,1005.11,VALID,0,VALID,72.8329,VALID,157.72,VALID,28.8288,VALID,19,VALID,0,
2012-07-10, 09:55:05,VALID,1005.05,VALID,0,VALID,72.1387,VALID,154.133,VALID,28.9068,VALID,19,VALID,0.00429688,
2012-07-10, 09:56:05,VALID,1005.04,VALID,0,VALID,71.8488,VALID,144.923,VALID,28.9653,VALID,57,VALID,0.209766,
2012-07-10, 09:57:05,VALID,1005.02,VALID,0,VALID,71.9785,VALID,140.032,VALID,28.9263,VALID,122,VALID,0.638672,
2012-07-10, 09:58:05,VALID,1004.99,VALID,0,VALID,71.6657,VALID,136.201,VALID,28.9068,VALID,115,VALID,0.394531,
2012-07-10, 09:59:05,VALID,1004.97,VALID,0,VALID,72.3294,VALID,131.229,VALID,28.9458,VALID,115,VALID,0.0804688,
2012-07-10, 10:00:05,VALID,1004.95,VALID,0,VALID,73.4661,VALID,125.035,VALID,28.9848,VALID,108,VALID,0.292578,
2012-07-10, 10:17:04,VALID,1005.03,VALID,0,VALID,91.2262,VALID,124.22,VALID,26.6245,VALID,142,VALID,0,
2012-07-10, 10:18:05,VALID,1005.01,VALID,0,VALID,91.2414,VALID,138.158,VALID,26.6245,VALID,142,VALID,0.224609,
2012-07-10, 10:19:04,VALID,1005.02,VALID,0,VALID,91.3177,VALID,152.585,VALID,26.6265,VALID,142,VALID,0,
2012-07-10, 10:20:05,VALID,1005.02,VALID,0,VALID,91.9051,VALID,164.322,VALID,26.7045,VALID,189,VALID,0.75625,
2012-07-10, 10:21:05,VALID,1005.03,VALID,0,VALID,91.6,VALID,167.012,VALID,26.7629,VALID,201,VALID,0.29375,
2012-07-10, 10:22:05,VALID,1005.07,VALID,0,VALID,91.5695,VALID,156.09,VALID,26.8019,VALID,164,VALID,0.801562,
2012-07-10, 10:23:05,VALID,1005.06,VALID,0,VALID,90.8066,VALID,139.217,VALID,26.7609,VALID,163,VALID,0.204297,
2012-07-10, 10:30:05,VALID,1004.92,VALID,0,VALID,89.6393,VALID,145.901,VALID,26.8388,VALID,186,VALID,0.716797,
2012-07-10, 10:31:04,VALID,1004.91,VALID,0,VALID,90.0437,VALID,152.911,VALID,26.8388,VALID,252,VALID,0.276172,
2012-07-10, 10:32:05,VALID,1004.89,VALID,0,VALID,89.5631,VALID,154.541,VALID,26.8778,VALID,125,VALID,0.935547,
2012-07-10, 10:33:05,VALID,1004.9,VALID,0,VALID,88.6018,VALID,146.798,VALID,26.8368,VALID,118,VALID,1.41094,
2012-07-10, 11:40:04,VALID,1004.24,VALID,0,VALID,92.3934,VALID,116.802,VALID,24.9282,VALID,236,VALID,1.37148,
2012-07-10, 11:41:04,VALID,1004.21,VALID,0,VALID,93.2249,VALID,116.802,VALID,25.0839,VALID,181,VALID,0.907031,
2012-07-10, 11:42:04,VALID,1004.18,VALID,0,VALID,93.1105,VALID,115.661,VALID,25.2397,VALID,168,VALID,0.85625,
2012-07-10, 11:43:04,VALID,1004.15,VALID,0,VALID,93.0495,VALID,113.297,VALID,25.4169,VALID,169,VALID,0.650781,
2012-07-10, 11:44:04,VALID,1004.11,VALID,0,VALID,92.7214,VALID,108.814,VALID,25.4734,VALID,127,VALID,0.583203,
2012-07-10, 12:32:04,VALID,1003.59,VALID,0,VALID,92.0653,VALID,115.417,VALID,25.9622,VALID,77,VALID,0.191797,
2012-07-10, 12:33:04,VALID,1003.58,VALID,0,VALID,92.0272,VALID,117.78,VALID,26.0206,VALID,77,VALID,0.189453,
2012-07-10, 12:34:04,VALID,1003.57,VALID,0,VALID,91.1422,VALID,119.9,VALID,25.9408,VALID,77,VALID,0.252734,
2012-07-10, 12:35:04,VALID,1003.55,VALID,0,VALID,91.0125,VALID,121.611,VALID,25.9797,VALID,77,VALID,0.0304688,
2012-07-10, 12:36:04,VALID,1003.52,VALID,0,VALID,90.6387,VALID,123.404,VALID,25.9992,VALID,77,VALID,0,
2012-07-10, 12:37:04,VALID,1003.54,VALID,0,VALID,90.6692,VALID,125.361,VALID,26.0381,VALID,77,VALID,0,
2012-07-10, 12:38:04,VALID,1003.53,VALID,0,VALID,90.5777,VALID,127.154,VALID,26.0771,VALID,77,VALID,0,
2012-07-10, 12:39:04,VALID,1003.53,VALID,0,VALID,90.6845,VALID,129.192,VALID,26.116,VALID,77,VALID,0,
2012-07-10, 12:40:04,VALID,1003.53,VALID,0,VALID,90.5777,VALID,131.229,VALID,26.1959,VALID,77,VALID,0,
2012-07-10, 12:41:05,VALID,1003.54,VALID,0,VALID,89.6775,VALID,132.778,VALID,26.194,VALID,77,VALID,0.298047,
2012-07-10, 12:42:05,VALID,1003.56,VALID,0,VALID,89.4791,VALID,134.164,VALID,26.194,VALID,83,VALID,0.0121094,
2012-07-10, 12:43:05,VALID,1003.54,VALID,0,VALID,89.4028,VALID,135.712,VALID,26.2154,VALID,83,VALID,0,
2012-07-10, 12:44:05,VALID,1003.52,VALID,0,VALID,89.6775,VALID,137.016,VALID,26.2739,VALID,82,VALID,0.00429688,
2012-07-10, 12:45:05,VALID,1003.51,VALID,0,VALID,89.647,VALID,138.321,VALID,26.2913,VALID,82,VALID,0,
2012-07-10, 12:46:05,VALID,1003.5,VALID,0,VALID,89.8606,VALID,139.38,VALID,26.3303,VALID,82,VALID,0,
2012-07-10, 12:47:05,VALID,1003.47,VALID,0,VALID,89.8911,VALID,140.358,VALID,26.3887,VALID,82,VALID,0,
2012-07-10, 12:48:05,VALID,1003.46,VALID,0,VALID,89.2884,VALID,141.662,VALID,26.3887,VALID,82,VALID,0,
2012-07-10, 12:49:05,VALID,1003.44,VALID,0,VALID,89.296,VALID,142.967,VALID,26.4277,VALID,82,VALID,0,
2012-07-10, 12:50:05,VALID,1003.43,VALID,0,VALID,89.4639,VALID,144.434,VALID,26.4472,VALID,82,VALID,0,
2012-07-10, 12:51:05,VALID,1003.44,VALID,0,VALID,88.762,VALID,145.982,VALID,26.4687,VALID,82,VALID,0,
2012-07-10, 12:52:05,VALID,1003.42,VALID,0,VALID,88.1136,VALID,147.857,VALID,26.4102,VALID,82,VALID,0,
2012-07-10, 12:53:05,VALID,1003.39,VALID,0,VALID,87.9152,VALID,149.732,VALID,26.3887,VALID,82,VALID,0,
2012-07-10, 12:54:05,VALID,1003.4,VALID,0,VALID,88.1059,VALID,151.199,VALID,26.4082,VALID,82,VALID,0,
2012-07-10, 12:55:05,VALID,1003.37,VALID,0,VALID,87.7932,VALID,152.422,VALID,26.4297,VALID,82,VALID,0.333984,
2012-07-10, 12:56:05,VALID,1003.39,VALID,0,VALID,87.3965,VALID,153.318,VALID,26.3907,VALID,82,VALID,0.186328,
2012-07-10, 12:57:05,VALID,1003.35,VALID,0,VALID,87.7626,VALID,154.296,VALID,26.3887,VALID,82,VALID,0.0605469,
2012-07-10, 12:58:05,VALID,1003.34,VALID,0,VALID,88.0449,VALID,155.111,VALID,26.4472,VALID,82,VALID,0,
2012-07-10, 12:59:05,VALID,1003.3,VALID,0,VALID,87.9534,VALID,155.519,VALID,26.4472,VALID,82,VALID,0,
2012-07-10, 13:00:05,VALID,1003.3,VALID,0,VALID,88.1822,VALID,155.682,VALID,26.4861,VALID,82,VALID,0,
2012-07-10, 13:01:05,VALID,1003.28,VALID,0,VALID,88.022,VALID,156.579,VALID,26.5056,VALID,82,VALID,0,
2012-07-10, 13:02:05,VALID,1003.28,VALID,0,VALID,88.3195,VALID,158.127,VALID,26.5466,VALID,82,VALID,0,
2012-07-10, 13:03:05,VALID,1003.26,VALID,0,VALID,88.8078,VALID,159.92,VALID,26.605,VALID,82,VALID,0,
2012-07-10, 13:04:05,VALID,1003.21,VALID,0,VALID,88.3729,VALID,161.877,VALID,26.605,VALID,82,VALID,0,
2012-07-10, 13:05:05,VALID,1003.21,VALID,0,VALID,87.8542,VALID,163.914,VALID,26.5641,VALID,82,VALID,0,
2012-07-10, 13:06:05,VALID,1003.19,VALID,0,VALID,88.6705,VALID,165.789,VALID,26.6245,VALID,82,VALID,0,
2012-07-10, 13:07:05,VALID,1003.17,VALID,0,VALID,89.0443,VALID,167.827,VALID,26.683,VALID,82,VALID,0,
2012-07-10, 13:08:05,VALID,1003.13,VALID,0,VALID,87.0837,VALID,170.435,VALID,26.5835,VALID,82,VALID,0,
2012-07-10, 13:09:05,VALID,1003.12,VALID,0,VALID,85.9622,VALID,173.125,VALID,26.5661,VALID,82,VALID,0,